Regional Weather Roundup
Issued by NWS Goodland, KS

Home | Current Version | Previous Version | Graphics & Text | Print | Product List | Glossary On
Versions: 1 2 3 4 5 6 7 8 9 10 11 12 13 14 15 16 17 18 19 20 21 22 23 24 25 26 27 28 29 30 31 32 33 34 35 36 37 38 39 40 41 42 43 44 45 46 47 48 49 50
000
ASUS43 KGLD 031159
RWRGLD

GOODLAND FORECAST AREA HOURLY WEATHER ROUNDUP
NATIONAL WEATHER SERVICE GOODLAND KS
600 AM MDT FRI JUL 03 2015

...OFFICIAL OBSERVATIONS...

CITY           SKY/WX    TMP DP  RH WIND       PRES   REMARKS
GOODLAND KS    PTCLDY    61  58  90 NW7       30.12R
HILL CITY KS   CLOUDY    64  61  90 NW5       30.05R FOG
IMPERIAL NEB   MOCLDY    63  58  83 W5        30.10R
MCCOOK NEB     CLEAR     61  59  93 CALM      30.06R FOG
AKRON CO       LGT RAIN  60  59  96 N7        30.15F
BURLINGTON CO  LGT RAIN  63  59  87 W6        30.15S
LIMON CO       CLEAR     56  53  90 E6        30.21R
$$

...UNOFFICIAL OBSERVATIONS...

CITY           SKY/WX    TMP DP  RH WIND       PRES   REMARKS
COLBY KS       MOCLDY    63  59  88 NW7       30.10R
GOVE KS          N/A     59  32  36 MISG        N/A
NORTON KS      FOG       57  55  94 NW5       30.04R VSB 0
SHARON SPRINGS   N/A     63  59  88 CALM        N/A
$$



USA.gov is the U.S. government's official web portal to all federal, state and local government web resources and services.